Location: Arroyo Retuerta
(40.5469°N, 4.3534°W)
Time: 05:46:18
(UTC+00:00)

NOSS 2-2 (C) - Pass Details

Date: 01 June 2020
Orbit: 482 x 1726 km, 63.3° (Epoch: 24 June)

Event Time Altitude Azimuth Distance (km) Brightness Sun altitude
Rises 21:55:28 0° 230° (SW) 2,554 6.7 -19.3°
Reaches altitude 10° 21:57:39 10° 238° (WSW) 1,656 5.8 -19.5°
Maximum altitude 22:01:02 40° 310° (NW) 738 4.4 -19.9°
Drops below altitude 10° 22:04:42 10° 22° (NNE) 1,800 6.4 -20.3°
Sets 22:07:10 0° 30° (NNE) 2,812 7.3 -20.5°
